[Iaude] MPEC N89: 2024 NT1 [a=1.52,e=0.27,i=13.8,H=25.1]
    mpec at cfa.harvard.edu 
    mpec at cfa.harvard.edu
       
    Mon Jul  8 00:48:09 EDT 2024
    
    
  
M.P.E.C. 2024-N89                                  Issued 2024 July 8, 04:46 UT
     The Minor Planet Electronic Circulars contain information on unusual
         minor planets, routine data on comets and natural satellites,
         and occasional editorial announcements.  They are published
    on behalf of Division F of the International Astronomical Union by the
          Minor Planet Center, Smithsonian Astrophysical Observatory,
                          Cambridge, MA 02138, U.S.A.
			  
             Prepared using the Tamkin Foundation Computer Network
                              MPC at CFA.HARVARD.EDU
            URL https://www.minorplanetcenter.net/    ISSN 1523-6714
                                    2024 NT1                                    
Observations:
     K24N01T* C2024 07 06.40823519 20 47.692-33 26 35.12         20.88wXEN089F51
     K24N01T  C2024 07 06.41545619 20 49.232-33 27 38.45         20.57wXEN089F51
     K24N01T  C2024 07 06.42270119 20 50.777-33 28 41.90         20.68wXEN089F51
     K24N01T |C2024 07 07.16774019 24 04.070-35 14 27.30         21.6 GVEN089807
     K24N01T |C2024 07 07.17221019 24 05.060-35 15 04.30         21.6 GVEN089807
     K24N01T 3C2024 07 07.45722719 25 17.815-35 56 23.08         20.57GVEN089T14
     K24N01T 3C2024 07 07.45821519 25 18.030-35 56 31.31         20.62GVEN089T14
     K24N01T 3C2024 07 07.45919419 25 18.244-35 56 39.51         20.50GVEN089T14
     K24N01T 3C2024 07 07.46019819 25 18.464-35 56 47.99         20.61GVEN089T14
     K24N01T |C2024 07 08.11390019 28 16.750-37 26 13.30         21.2 GVEN089807
     K24N01T |C2024 07 08.11837019 28 17.820-37 26 50.60         21.0 GVEN089807
     K24N01T |C2024 07 08.12270019 28 18.850-37 27 26.90         20.4 GVEN089807
Observer details:
807 Cerro Tololo Observatory, La Serena.  Observers T. Linder, R. Holmes.
    0.61-m f/6.8 Ritchey-Chretien + CCD.
F51 Pan-STARRS 1, Haleakala.  Observers J. Herman, T. Lowe, P. Minguez, A.
    Schultz, I. Smith.  Measurers K. Chambers, T. de Boer, J. Fairlamb, H.
    Gao, M. Huber, C.-C. Lin, E. Magnier, Y. Ramanjooloo, R. Wainscoat, R.
    Weryk.  1.8-m Ritchey-Chretien + CCD.
T14 Canada-France-Hawaii Telescope, Maunakea.  Observers R. Wainscoat, H.
    Januszewski, H. Flewelling.  Measurers R. Weryk, R. Wainscoat.  3.6-m
    f/4.1 reflector + CCD.
Orbital elements:
2024 NT1                                                 Earth MOID = 0.0939 AU
Epoch 2024 Mar. 31.0 TT = JDT 2460400.5                 MPC                     
M 311.36874              (2000.0)            P               Q                  
n   0.52706119     Peri.  179.15732     +0.17315134     +0.95674849             
a   1.5178494      Node   100.78963     -0.90501022     +0.24820215             
e   0.2683365      Incl.   13.76751     -0.38855516     -0.15174988             
P   1.87           H   25.10          G   0.15           U   8                  
Residuals in seconds of arc
240706 F51  0.0   0.0     240707 807  0.4+  0.3+    240707 T14  0.1-  0.0
240706 F51  0.0   0.0     240707 T14  0.0   0.0     240708 807  0.2-  0.1-
240706 F51  0.0   0.0     240707 T14  0.1-  0.0     240708 807  0.0   0.1+
240707 807  0.5+  1.1-    240707 T14  0.1-  0.1+    240708 807  0.2+  0.0
Ephemeris:
2024 NT1                 a,e,i = 1.52, 0.27, 14                  q = 1.1106
Date    TT    R. A. (2000) Decl.     Delta      r    Elong.  Phase     V
2024 06 08    18 02 45.4 +19 37 49   0.1515  1.1277   135.3    39.3    22.8
...
2024 06 23    18 34 35.7 -00 42 43   0.1044  1.1127   156.3    21.5    21.5
...
2024 07 01    18 59 35.6 -19 41 30   0.09426 1.1105   174.4     5.1    20.6
...
2024 07 07    19 23 18.3 -34 50 23   0.09708 1.1116   167.1    11.8    21.0
2024 07 08    19 27 42.2 -37 10 26   0.09841 1.1120   164.8    13.9    21.1
2024 07 09    19 32 13.7 -39 25 13   0.09997 1.1124   162.5    16.0    21.2
...
2024 07 15    20 01 46.3 -50 43 44   0.1134  1.1165   150.4    26.7    21.8
...
2024 07 23    20 44 46.0 -60 03 49   0.1392  1.1254   139.5    35.9    22.5
...
2024 08 07    21 52 25.3 -66 01 51   0.1992  1.1520   129.9    42.5    23.6
A. U. Tomatic                (C) Copyright 2024 MPC           M.P.E.C. 2024-N89
    
    
More information about the Iaude
mailing list